Regional Weather Roundup
Issued by NWS

Home | Current Version | Previous Version | Graphics & Text | Print | Product List | Glossary On
Versions: 1 2 3 4 5 6 7 8 9 10 11 12 13 14 15 16 17 18 19 20 21 22 23 24 25 26 27 28 29 30 31 32 33 34 35 36 37 38 39 40 41 42 43 44 45 46 47 48
000
ASUS43 KDMX 290407
RWRIA

WEATHER ROUNDUP FOR IOWA
NATIONAL WEATHER SERVICE DES MOINES IA
1100 PM CDT TUE JUL 28 2015

NOTE: "FAIR" INDICATES FEW OR NO CLOUDS BELOW 12,000 FEET WITH NO
SIGNIFICANT WEATHER AND/OR OBSTRUCTIONS TO VISIBILITY.

* - THESE STATIONS ARE NOT NWS STATIONS...THUS NOT UNDER NWS
QUALITY CONTROL.  THEY ALSO DO NOT REPORT WEATHER SUCH
AS PRECIPITATION OR FOG.

IAZ001>003-012>014-020>022-031>034-043>046-290500-
   NORTHWEST IOWA

CITY           SKY/WX    TMP DP  RH WIND       PRES   REMARKS
CARROLL *      CLOUDY    73  68  83 N7        30.01R
CHEROKEE *     CLOUDY    64  64 100 CALM      30.02R
DENISON *      CLOUDY    70  63  78 N5        30.00R
LE MARS *      CLEAR     63  63 100 S3        30.03R
ORANGE CITY *  CLEAR     64  61  88 CALM      30.03R
SHELDON *      CLEAR     59  59 100 W5        30.01S
SIOUX CITY     CLEAR     67  61  81 CALM      30.02R
SPENCER        CLOUDY    65  61  87 CALM      30.02R
STORM LAKE *   CLEAR     66  61  82 NW7       30.04R
$$

IAZ055>058-069>071-079>083-090>094-290500-
   SOUTHWEST IOWA

CITY           SKY/WX    TMP DP  RH WIND       PRES   REMARKS
ATLANTIC *     CLOUDY    75  72  88 N5        30.01R
AUDUBON *      CLOUDY    73  70  88 N6        30.02R
CLARINDA *     LGT RAIN  73  73 100 N9        29.97S
COUNCIL BLFS * CLOUDY    73  66  78 N10       30.01R
CRESTON *      LGT RAIN  72  72 100 S8        29.98F
HARLAN  *      CLOUDY    72  70  94 N5        30.05R
LAMONI         TSTM      71  69  93 NE10      30.00R FOG
RED OAK *      CLOUDY    73  72  94 N9        29.99F
SHENANDOAH *   LGT RAIN  73  72  94 NE8       29.99R
$$

IAZ047>049-059>061-072>074-084-290500-
   CENTRAL IOWA

CITY           SKY/WX    TMP DP  RH WIND       PRES   REMARKS
AMES           TSTM      70  32  24 W12       29.99R VSB 1/2
ANKENY *       LGT RAIN  72  72 100 SW6       29.99R
CHARITON *     LGT RAIN  70  68  94 S8        29.98F
DES MOINES     TSTM      72  69  90 SW8       29.99R FOG
GRINNELL*      RAIN      70  70 100 W7        29.98F
KNOXVILLE *    DRIZZLE   70  68  94 VRB3G12   29.96S
MARSHALLTOWN   LGT RAIN  73  72  96 CALM      29.95F
PELLA *        LGT RAIN  70  70 100 CALM      29.99R
PERRY *        CLOUDY    70  68  94 CALM      30.01R
$$

IAZ004>006-015-016-023>025-035-036-290500-
   NORTH CENTRAL IOWA

CITY           SKY/WX    TMP DP  RH WIND       PRES   REMARKS
ALGONA *       CLEAR     70  63  78 W3        30.01R
CLARION *      CLOUDY    73  73 100 W6        30.01R
ESTHERVILLE    CLOUDY    64  61  90 W3        30.01R
FORT DODGE *   CLOUDY    73  70  88 CALM      30.03R
MASON CITY     CLOUDY    73  71  93 W9        30.00R
FOREST CITY *  CLOUDY    72  70  94 NW7       30.00R
IOWA FALLS *   LGT RAIN  73  72  94 SW8       30.01R
$$

IAZ007>011-017>019-026>030-037>042-050>054-066-290500-
   NORTHEAST IOWA

CITY           SKY/WX    TMP DP  RH WIND       PRES   REMARKS
CEDAR RAPIDS   LGT RAIN  71  71 100 N3        29.97R
CHARLES CITY * CLOUDY    75  75 100 SW3       29.97S
CLINTON *      CLOUDY    75  72  88 N5        29.98R
DECORAH *      MOCLDY    73  72  94 CALM      29.94S
DUBUQUE        CLOUDY    74  71  91 CALM      29.97R
MONTICELLO *   MOCLDY    73  72  94 SW3       29.98R
OELWEIN *      MOCLDY    72  72 100 CALM      29.98
WATERLOO       LGT RAIN  73  71  93 W6        29.95R
$$

IAZ064-065-067-068-078-290500-
   EAST CENTRAL IOWA

CITY           SKY/WX    TMP DP  RH WIND       PRES   REMARKS
DAVENPORT      CLOUDY    76  74  93 E3        29.95R
IOWA CITY      LGT RAIN  74  72  93 CALM      29.99R
MT. PLEASANT * CLOUDY    77  68  73 N6        29.98R
MUSCATINE *    CLEAR     77  75  94 NW3       29.96R
QUAD CITIES    CLOUDY    80  75  84 CALM      29.94R HX  85
$$

IAZ062-063-075>077-085>089-095>099-290500-
   SOUTHEAST IOWA

CITY           SKY/WX    TMP DP  RH WIND       PRES   REMARKS
BURLINGTON     CLOUDY    78  76  93 N7        29.96R HX  81
FAIRFIELD *    DRIZZLE   72  68  88 NW7G15    29.99R
FORT MADISON * CLEAR     75  73  94 SW3       29.95R
KEOKUK *       CLEAR     77  72  83 SW6       29.94R
OSKALOOSA *    LGT RAIN  72  70  94 NE9       29.93F
CENTERVILLE *  LGT RAIN  68  68 100 W9        30.03F
OTTUMWA        LGT RAIN  71  71 100 SE8       29.93F
WASHINGTON *   LGT RAIN  73  70  88 N8        29.99R
$$

ABBREVIATIONS USED IN REMARKS
   TC - TEMPERATURES IN CELSIUS
  WCI - WIND CHILL INDEX
   HX - HEAT INDEX
  VSB - VISIBILITY
$$



USA.gov is the U.S. government's official web portal to all federal, state and local government web resources and services.